www.pogodaiklimat.ru

Погода и климат >> Архив погоды >> Россия >> Чукотка >> Мыс Ванкарем


АРХИВ ПОГОДЫ на Мысе Ванкарем

Время (UTC), дата Ветер
(напр.,м/с)
 
Видим.   Явления Облачность Т
(С)
Тd
(С)
f
(%)
Тe
(С)
Тes
(С)
Комфортность P
(гПа)
Po
(гПа)
Тmin
(С)
Tmax
(С)
R
(мм)
R24
(мм)
S
(см)
15 19.03 Ю 1
{2}
20 км 9/0
[Ac trans]
-27.4 -29.3 84 -31 -31 опасность
обморожения
1002.9 1002.2
18 19.03 Ю 1
{6}
20 км 9/0
[Ac trans]
-27.9 -29.6 85 -32 -32 опасность
обморожения
1003.7 1003.0 -27.9
21 19.03 З 1
{3}
20 км 9/0
[Ac trans]
-26.0 -27.7 86 -30 -29 1005.7 1005.0
00 20.03 З 1
{3}
20 км 9/0
[Ac trans]
-25.3 -27.7 80 -29 -27 1008.9 1008.2
03 20.03 ЮЗ 12
{16}
2000 м метель 9/0
[Ac trans]
-24.8 -27.3 80 -41 -41 опасность
обморожения
1010.9 1010.2
06 20.03 ЮЗ 11
{16}
2000 м метель 8/0
[Ac trans]
-24.5 -27.0 80 -40 -40 опасность
обморожения
1012.3 1011.6 -24.2
09 20.03 ЮЗ 6
{13}
20 км {метель} 8/0
[Ac trans Ci fib]
-26.4 -29.5 75 -39 -39 опасность
обморожения
1013.6 1012.9
12 20.03 ЮЗ 5
{10}
20 км {метель} 4/0
[Ci fib]
-28.2 -31.3 75 -40 -40 опасность
обморожения
1014.9 1014.2
15 20.03 ЮЗ 5
{9}
20 км 6/0
[Ac trans Ci fib]
-29.3 -32.4 74 -42 -42 опасность
обморожения
1016.7 1016.0
18 20.03 ЮЗ 3
{7}
20 км 9/0
[Ac trans]
-29.1 -31.5 80 -39 -39 опасность
обморожения
1018.2 1017.5 -30.1
21 20.03 СЗ 3
{6}
20 км 9/0
[Ac trans]
-28.9 -31.3 80 -38 -37 опасность
обморожения
1019.9 1019.2
00 21.03 СЗ 2
{5}
20 км 8/0
[Ac trans Ci fib]
-28.4 -30.8 80 -36 -33 опасность
обморожения
1021.2 1020.5
03 21.03 СЗ 2
{5}
20 км 3/0
[Ci fib]
-27.7 -30.1 80 -35 -33 опасность
обморожения
1023.3 1022.6
06 21.03 СЗ 3
{5}
20 км 3/0
[Ci fib]
-27.1 -29.4 81 -36 -36 опасность
обморожения
1023.9 1023.2 -27.1
09 21.03 З 4
{7}
20 км 3/0
[Ci fib]
-27.4 -29.8 80 -38 -38 опасность
обморожения
1024.7 1024.0
12 21.03 СЗ 5
{7}
20 км 5/0
[Ac lent Ci fib]
-27.8 -30.3 79 -40 -40 опасность
обморожения
1025.2 1024.5
15 21.03 С 5
{7}
20 км 6/0
[Ac lent Ci fib]
-27.2 -29.6 80 -39 -39 опасность
обморожения
1025.8 1025.1
18 21.03 С 6
{9}
20 км 8/0
[Ac trans]
-26.9 -29.3 80 -40 -40 опасность
обморожения
1026.4 1025.7 -27.8
21 21.03 С 6
{9}
20 км 9/0
[Ac trans]
-26.4 -28.2 85 -39 -39 опасность
обморожения
1027.0 1026.3
00 22.03 С 6
{9}
20 км 6/0
[Ac trans Ci fib]
-27.3 -29.8 79 -40 -39 опасность
обморожения
1025.0 1024.3
03 22.03 С 6
{10}
20 км 9/0
[Ac trans]
-28.0 -30.4 80 -41 -41 опасность
обморожения
1024.3 1023.6
06 22.03 С 6
{9}
20 км 9/0
[Ac trans]
-28.1 -30.4 81 -41 -41 опасность
обморожения
1023.7 1023.0 -26.4
09 22.03 С 7
{11}
20 км позёмок 9/0
[Ac trans Ci fib]
-28.4 -30.2 84 -43 -43 опасность
обморожения
1022.8 1022.1
12 22.03 С 12
{15}
10 км позёмок 8/0
[Ac trans Ci fib]
-29.1 -30.9 84 -47 -47 опасность
обморожения
1021.9 1021.2
15 22.03 С 12
{16}
10 км сильный позёмок 8/0
[Ac trans]
-28.8 -30.5 85 -46 -46 опасность
обморожения
1020.8 1020.1
18 22.03 СЗ 11
{16}
10 км сильный позёмок 9/0
[Ac trans]
-28.5 -30.2 85 -45 -45 опасность
обморожения
1020.2 1019.5 -29.1
21 22.03 СЗ 12
{17}
10 км сильный позёмок 10/0
[Ac und]
-27.9 -30.3 80 -45 -45 опасность
обморожения
1019.5 1018.8
00 23.03 С 13
{18}
2000 м метель 10/10 600 м
[Sc]
-26.4 -28.2 85 -44 -44 опасность
обморожения
1016.7 1016.0
03 23.03 С 13
{18}
2000 м метель {снег} 10/10 600 м
[Sc]
-26.0 -27.7 86 -43 -43 опасность
обморожения
1013.1 1012.4
06 23.03 С 14
{19}
2000 м метель {снег} 10/10 600 м
[Sc]
-25.8 -27.6 85 -43 -43 опасность
обморожения
1011.8 1011.1 -25.5 0.4
09 23.03 С 13
{18}
2000 м метель {снег} 10/10 600 м
[Sc]
-24.4 -26.2 85 -41 -41 опасность
обморожения
1010.9 1010.2
12 23.03 С 13
{18}
2000 м метель {снег} 10/10 600 м
[Sc]
-23.8 -25.6 85 -40 -40 опасность
обморожения
1010.0 1009.3
15 23.03 С 13
{17}
2000 м метель 10/10 600 м
[Sc]
-23.1 -24.9 85 -39 -39 опасность
обморожения
1009.2 1008.5
18 23.03 С 13
{17}
2000 м метель {снег} 10/10 600 м
[Sc]
-22.5 -24.3 85 -38 -38 опасность
обморожения
1008.6 1007.9 -25.8 0.4
21 23.03 С 12
{16}
2000 м метель 10/10 600 м
[Sc]
-21.9 -23.7 85 -37 -37 опасность
обморожения
1007.7 1007.0
00 24.03 С 7
{14}
20 км {метель} 10/10 600 м
[Sc]
-20.0 -21.9 85 -32 -32 опасность
обморожения
1008.5 1007.8
03 24.03 С 6
{10}
20 км 10/10 1000 м
[Sc]
-17.8 -19.7 85 -28 -28 1009.3 1008.6
06 24.03 С 6
{8}
20 км 10/10 600 м
[Sc]
-15.0 -17.0 85 -25 -25 1009.2 1008.6 -13.9
09 24.03 С 5
{7}
20 км {снег} 10/10 600 м
[Sc]
-15.5 -17.4 85 -24 -24 1008.7 1008.1
12 24.03 С 8
{12}
20 км сильный позёмок 10/10 600 м
[Sc]
-17.0 -18.9 85 -29 -29 1008.1 1007.5
15 24.03 С 9
{13}
10 км сильный позёмок 10/10 600 м
[Sc]
-18.3 -20.2 85 -31 -31 опасность
обморожения
1007.6 1007.0
18 24.03 С 10
{13}
10 км сильный позёмок 10/10 600 м
[Sc]
-19.5 -21.4 85 -33 -33 опасность
обморожения
1007.2 1006.6 -20.5 0.3
21 24.03 С 10
{14}
10 км сильный позёмок 10/10 600 м
[Sc]
-20.0 -21.9 85 -34 -34 опасность
обморожения
1006.6 1006.0
00 25.03 С 10
{14}
10 км сильный позёмок 10/10 600 м
[Sc]
-19.2 -21.1 85 -33 -33 опасность
обморожения
1003.8 1003.1
03 25.03 С 10
{14}
10 км сильный позёмок 10/10 600 м
[Sc]
-18.5 -20.4 85 -32 -32 опасность
обморожения
1000.7 1000.1
06 25.03 С 10
{14}
10 км сильный позёмок 10/10 600 м
[Sc]
-17.0 -18.9 85 -30 -30 1002.4 1001.8 -16.1 0.2
09 25.03 СЗ 10
{13}
10 км сильный позёмок 10/10 600 м
[Sc]
-17.4 -19.3 85 -30 -30 1003.9 1003.3
12 25.03 СЗ 9
{12}
10 км сильный позёмок 10/10 600 м
[Sc]
-18.7 -21.3 80 -31 -31 опасность
обморожения
1005.5 1004.9
15 25.03 СЗ 7
{12}
10 км сильный позёмок 10/10 600 м
[Sc]
-18.3 -20.9 80 -30 -30 1006.8 1006.2
18 25.03 С 7
{12}
10 км сильный позёмок 10/10 600 м
[Sc]
-17.5 -19.4 85 -28 -28 1005.6 1005.0 -18.7 0.2
21 25.03 С 8
{13}
10 км сильный позёмок 10/10 600 м
[Sc]
-15.7 -17.6 85 -27 -27 1003.6 1003.0
00 26.03 С 9
{12}
10 км сильный позёмок 10/10 600 м
[Sc]
-11.9 -13.9 85 -22 -22 1000.6 1000.0
03 26.03 СЗ 8
{13}
2000 м снег {метель} 10/0 600 м
[As op]
-7.7 -9.5 87 -17 -17 995.4 994.8
06 26.03 ЮВ 9
{13}
2000 м сильный позёмок 10/0 600 м
[As op]
-4.1 -6.4 84 -13 -13 988.7 988.1 -2.0 0.6
09 26.03 ЮВ 10
{13}
10 км {снег, метель} 10/10 600 м
[Sc]
-3.8 -6.4 82 -13 -13 986.7 686.1

 

Местоположение метеостанции Мыс Ванкарем (Чукотка, Россия): широта 67.83 долгота -175.00 высота над уровнем моря 5 м.

В архиве по умолчанию представлена погода на Мысе Ванкарем за последнюю неделю. Архивные данные за месяц целиком и за предыдущие месяцы, начиная с января 2011 года, Вы можете получить, выбрав интересующий диапазон дат из раскрывающегося списка и нажав кнопку "Ввод!".


*Определитесь, кто Вы:
робот инопланетянин человек

Внимание! Время в таблицах - всемирное. Для получения местного времени необходимо прибавить поправку, которая равна 12 ч.

Смотрите также архив погоды в соседних городах и на ближайших метеорологических станциях:

Погода на Мысе Шмидта (Чукотка, Россия) (201 км)
Погода в Эгвекиноте (Чукотка, Россия) (239 км)
Погода в Уэлене (Чукотка, Россия) (320 км)
Погода на Острове Врангеля (Чукотка, Россия) (369 км)

Пояснения к столбцам:

Ветер - указаны скорость ветра в м/с - средняя за 10 мин, порывы в срок и между сроками (в фигурных скобках) и направление, откуда дует ветер: С - северный, СВ - северо-восточный, В - восточный, ЮВ - юго-восточный, Ю - южный, ЮЗ - юго-западный, З - западный, СЗ - северо-западный.
Видимость - горизонтальная дальность видимости в метрах или километрах. При видимости от 1 до 10 км при отсутствии осадков обычно наблюдается дымка, при ухудшении видимости до 1 км и менее - туман. В сухую погоду видимость может ухудшаться дымом, пылью или мглою.
Явления - указаны атмосферные явления, наблюдавшиеся в срок или в последний час перед сроком; фигурными скобками обозначены явления, наблюдавшиеся между сроками (за 1-3 часа до срока); квадратными скобками обозначены град или гололедные отложения с указанием их диаметра в мм.
Облачность - указаны через наклонную черту общая и нижняя облачность в баллах и высота нижней границы облаков в метрах; квадратными скобками обозначены формы облаков: Ci - перистые, Cs - перисто-слоистые, Cc - перисто-кучевые, Ac - высококучевые, As - высокослоистые, Sc - слоисто-кучевые, Ns - слоисто-дождевые, Cu - кучевые, Cb - кучево-дождевые. Подробнее классификацию облаков см. в Атласе облаков (PDF).
T - Температура воздуха - температура, измеренная на высоте 2 м над землей.
Td - Температура точки росы - температура, при понижении до которой содержащийся в воздухе водяной пар достигнет насыщения.
f - Относительная влажность воздуха - влажноcть воздуха, измеренная на высоте 2 м над землей.
Te - Эффективная температура - температура, которую ощущает одетый по сезону человек в тени. Характеристика душности погоды. При расчете учитывается влияние влажности воздуха и скорости ветра на теплоощущения человека.
Tes - Эффективная температура на солнце - температура, которую ощущает человек, с поправкой на солнечный нагрев. Характеристика знойности погоды. Зависит от высоты солнца над горизонтом, облачности и скорости ветра. Ночью, в пасмурную погоду, а также при ветре 12 м/с и более поправка равна нулю.
P - Атмосферное давление - приведенное к уровню моря атмосферное давление.
Po - Атмосферное давление - измеренное на уровне метеостанции атмосферное давление.
Tmin - Минимальная температура - минимум температуры воздуха на высоте 2 м над землей.
Tmax - Максимальная температура - максимум температуры воздуха на высоте 2 м над землей.
R - Количество осадков - Количество выпавших осадков за период времени, мм. При наведении курсора мыши на число - период времени, за который выпало указанное количество осадков.
R24 - Количество осадков - Количество выпавших осадков за 24 часа, мм.
S - Снежный покров - Высота снежного покрова, см. При наведении курсора мыши на число - состояние снежного покрова и степень покрытия местности в баллах.